This is the latest recevied weather packets stored in our database for station/object N4QD-13. If no packets are shown the sender has not sent any weather packets the latest 10 day(s).
| Time | Temp. | Humidity | Pressure | Rain* | Wind** | Luminosity | Snow |
|---|---|---|---|---|---|---|---|
| 1778072598 | 15.56° C | 97% | 1011.2 hPa | 1.78 mm | - | 55 W/m² | - |
| 1778072296 | 15.56° C | 96% | 1011.2 hPa | 1.78 mm | - | 65 W/m² | - |
| 1778071994 | 15.56° C | 96% | 1010.9 hPa | 1.78 mm | - | 60 W/m² | - |
| 1778071693 | 15.56° C | 95% | 1010.9 hPa | 1.27 mm | - | 64 W/m² | - |
| 1778071389 | 15.56° C | 94% | 1011 hPa | 1.27 mm | - | 63 W/m² | - |
| 1778071087 | 15.56° C | 94% | 1010.9 hPa | 1.78 mm | - | 44 W/m² | - |
| 1778070786 | 15.56° C | 94% | 1010.9 hPa | 1.78 mm | - | 23 W/m² | - |
| 1778070482 | 15.56° C | 94% | 1011.2 hPa | 0 mm | - | 26 W/m² | - |
| 1778070179 | 15.56° C | 94% | 1011.2 hPa | 0 mm | - | 42 W/m² | - |
| 1778069877 | 15.56° C | 93% | 1011.1 hPa | 0 mm | - | 50 W/m² | - |
| 1778069574 | 15.56° C | 93% | 1011.3 hPa | 1.27 mm | - | 33 W/m² | - |
| 1778069271 | 15.56° C | 93% | 1011.1 hPa | 1.27 mm | - | 18 W/m² | - |
| 1778068969 | 15.56° C | 93% | 1011.2 hPa | 0 mm | - | 24 W/m² | - |
| 1778068666 | 15.56° C | 93% | 1011.2 hPa | 1.78 mm | - | 29 W/m² | - |
| 1778068364 | 16.11° C | 91% | 1011.1 hPa | 3.05 mm | - | 27 W/m² | - |
| 1778068062 | 16.67° C | 90% | 1011.1 hPa | 1.27 mm | - | 16 W/m² | - |
| 1778067759 | 16.67° C | 89% | 1011.1 hPa | 0 mm | - | 14 W/m² | - |
| 1778067458 | 16.67° C | 88% | 1011 hPa | 0 mm | - | 26 W/m² | - |
| 1778067155 | 16.11° C | 88% | 1010.8 hPa | 0 mm | - | 34 W/m² | - |
| 1778066851 | 16.11° C | 89% | 1010.7 hPa | 0 mm | - | 32 W/m² | - |
| 1778066549 | 16.11° C | 89% | 1010.6 hPa | 0 mm | - | 35 W/m² | - |
| 1778066246 | 16.11° C | 90% | 1010.7 hPa | 0 mm | - | 22 W/m² | - |
| 1778065944 | 16.11° C | 90% | 1010.9 hPa | 0 mm | - | 18 W/m² | - |
| 1778065640 | 16.11° C | 88% | 1010.9 hPa | 0 mm | - | 16 W/m² | - |
| 1778065338 | 16.11° C | 88% | 1010.9 hPa | 0 mm | - | 20 W/m² | - |
* Rain latest hour (hover to see other rain measurements)
** Current wind speed in m/s (hover to see current wind gust speed)